Zacatecas Airport, Mexico

2:16 PM CST on February 13, 2016 (GMT -0600)
Gen Leobardo C Ruiz International

Weather History for MMZC - November, 2012

Change the Weather History Date:

Monday, November 5, 2012

  Actual Average Record
Temperature  
Mean Temperature 58 °F -  
Max Temperature 69 °F 72 °F 78 °F (1996)
Min Temperature 46 °F 38 °F 26 °F (2010)
Degree Days  
Heating Degree Days 8    
Growing Degree Days 8 (Base 50)    
Moisture  
Dew Point 40 °F    
Average Humidity 56    
Maximum Humidity 87    
Minimum Humidity 28    
Precipitation  
Precipitation 0.00 in - - ()
Sea Level Pressure  
Sea Level Pressure 30.32 in    
Wind  
Wind Speed 5 mph ()    
Max Wind Speed 17 mph    
Max Gust Speed -    
Visibility 9.8 miles    
Events      
Averages and records for this station are not official NWS values.
T = Trace of Precipitation, MM = Missing Value Source: Averaged Metar Reports

Daily Weather History Graph

Daily Weather History Graph

Search for Another Location

Airport or City:

Trip Planner

Search our weather history database for the weather conditions in past years. The results will help you decide how hot, cold, wet, or windy it might be!

Date:

Astronomy

Nov. 05, 2012 Rise Set
Actual Time 6:58 AM CST 6:10 PM CST
Civil Twilight 6:34 AM CST 6:33 PM CST
Nautical Twilight 6:08 AM CST 7:00 PM CST
Astronomical Twilight 5:41 AM CST 7:26 PM CST
Moon 11:48 PM CST (11/5) 12:17 PM CST (11/5)
Length of Visible Light 11h 58m
Length of Day
11h 12m
Waning Gibbous, 62% of the Moon is Illuminated
Nov 5
Waning Gibbous
Nov 6
Last Quarter
Nov 13
New
Nov 20
First Quarter
Nov 28
Full

Hourly Weather History & Observations

Time (CST) Temp. Windchill Dew Point Humidity Pressure Visibility Wind Dir Wind Speed Gust Speed Precip Events Conditions
12:58 AM 53.6 °F - 44.6 °F 72% 30.33 in 10.0 mi SSE 3.5 mph - N/A   Overcast
1:50 AM 53.6 °F - 44.6 °F 72% 30.33 in 10.0 mi Calm Calm - N/A   Overcast
2:43 AM 51.8 °F - 44.6 °F 76% 30.33 in 10.0 mi Calm Calm - N/A   Overcast
3:44 AM 51.8 °F - 44.6 °F 76% 30.31 in 10.0 mi NNE 4.6 mph - N/A   Overcast
4:50 AM 51.8 °F - 42.8 °F 71% 30.31 in 10.0 mi ENE 8.1 mph - N/A   Overcast
5:54 AM 48.2 °F - 42.8 °F 82% 30.31 in 10.0 mi NNE 6.9 mph - N/A   Overcast
6:47 AM 46.4 °F 42.4 °F 42.8 °F 87% 30.33 in 6.0 mi NNE 8.1 mph - N/A   Mostly Cloudy
7:45 AM 48.2 °F - 42.8 °F 82% 30.35 in 10.0 mi Calm Calm - N/A   Mostly Cloudy
8:41 AM 53.6 °F - 44.6 °F 72% 30.36 in 10.0 mi East 11.5 mph - N/A   Mostly Cloudy
9:40 AM 57.2 °F - 44.6 °F 63% 30.37 in 10.0 mi East 8.1 mph - N/A   Mostly Cloudy
11:42 AM 66.2 °F - 44.6 °F 46% 30.35 in 10.0 mi ENE 9.2 mph - N/A   Mostly Cloudy
12:50 PM 68.0 °F - 41.0 °F 37% 30.32 in 10.0 mi East 17.3 mph - N/A   Mostly Cloudy
1:53 PM 68.0 °F - 35.6 °F 30% 30.28 in 10.0 mi East 17.3 mph - N/A   Mostly Cloudy
2:45 PM 69.8 °F - 37.4 °F 31% 30.26 in 10.0 mi East 13.8 mph - N/A   Mostly Cloudy
4:44 PM 69.8 °F - 35.6 °F 28% 30.25 in 10.0 mi NE 6.9 mph - N/A   Mostly Cloudy
5:44 PM 66.2 °F - 33.8 °F 30% 30.26 in 10.0 mi ENE 8.1 mph - N/A   Mostly Cloudy
6:41 PM 62.6 °F - 33.8 °F 34% 30.28 in 10.0 mi ENE 8.1 mph - N/A   Mostly Cloudy
7:41 PM 59.0 °F - 33.8 °F 39% 30.30 in 10.0 mi ENE 5.8 mph - N/A   Mostly Cloudy
8:41 PM 60.8 °F - 33.8 °F 36% 30.33 in 10.0 mi East 6.9 mph - N/A   Mostly Cloudy
9:47 PM 53.6 °F - 33.8 °F 47% 30.35 in 10.0 mi ESE 4.6 mph - N/A   Mostly Cloudy
10:46 PM 48.2 °F - 33.8 °F 58% 30.36 in 10.0 mi Calm Calm - N/A   Mostly Cloudy
11:45 PM 50.0 °F - 33.8 °F 54% 30.36 in 10.0 mi Calm Calm - N/A   Mostly Cloudy